| time (UTC) | temp C | wind direction | speed KPH | gust KPH | rain 1hr cm | rain 24hr cm | rain mn cm | humidity % | barometer mb |
| 20260906190022 | 18 | 34 | 8.0 | 0.0 | 0.00 | 0.00 | 0.03 | 54 | 1016.5 |
| 20260906184521 | 18 | 34 | 1.6 | 0.0 | 0.00 | 0.00 | 0.03 | 53 | 1016.5 |
| 20260906183013 | 18 | 33 | 3.2 | 0.0 | 0.00 | 0.00 | 0.03 | 53 | 1016.6 |
| 20260906180009 | 18 | 13 | 4.8 | 0.0 | 0.00 | 0.00 | 0.03 | 53 | 1016.7 |
| 20260906174502 | 18 | 36 | 6.4 | 0.0 | 0.00 | 0.00 | 0.03 | 53 | 1016.8 |
| 20260906173058 | 18 | 34 | 4.8 | 0.0 | 0.00 | 0.00 | 0.03 | 52 | 1016.8 |
| 20260906170054 | 18 | 13 | 4.8 | 0.0 | 0.00 | 0.00 | 0.03 | 50 | 1016.7 |
| 20260906164550 | 18 | 16 | 3.2 | 0.0 | 0.00 | 0.00 | 0.03 | 47 | 1017.0 |
| 20260906163043 | 17 | 91 | 3.2 | 0.0 | 0.00 | 0.00 | 0.03 | 45 | 1016.9 |
| 20260906160037 | 17 | 31 | 6.4 | 0.0 | 0.00 | 0.00 | 0.03 | 47 | 1016.9 |
| 20260906154542 | 17 | 26 | 8.0 | 0.0 | 0.00 | 0.00 | 0.03 | 49 | 1017.0 |
| 20260906153032 | 17 | 10 | 4.8 | 0.0 | 0.00 | 0.00 | 0.03 | 46 | 1017.0 |
| 20260906150020 | 17 | 32 | 4.8 | 0.0 | 0.00 | 0.00 | 0.03 | 41 | 1016.7 |
| 20260906144518 | 17 | 12 | 1.6 | 0.0 | 0.00 | 0.00 | 0.03 | 29 | 1016.8 |
| 20260906143011 | 16 | 19 | 6.4 | 0.0 | 0.00 | 0.00 | 0.03 | 26 | 1016.7 |
| 20260906140007 | 15 | 43 | 1.6 | 0.0 | 0.00 | 0.00 | 0.03 | 100 | 1016.7 |
| 20260906134501 | 15 | 42 | 3.2 | 0.0 | 0.00 | 0.00 | 0.03 | 100 | 1016.6 |
| 20260906133103 | 15 | 39 | 3.2 | 0.0 | 0.00 | 0.00 | 0.03 | 100 | 1016.5 |
| 20260906130055 | 15 | 34 | 3.2 | 0.0 | 0.00 | 0.00 | 0.03 | 100 | 1016.4 |
| 20260906124544 | 15 | 34 | 3.2 | 0.0 | 0.00 | 0.00 | 0.03 | 100 | 1016.4 |
| 20260906123044 | 15 | 20 | 3.2 | 0.0 | 0.00 | 0.00 | 0.03 | 100 | 1016.3 |
| 20260906120032 | 14 | 19 | 0.0 | 0.0 | 0.00 | 0.00 | 0.03 | 100 | 1016.1 |
| 20260906114531 | -17 | 0.0 | 0.0 | 0.00 | 0.00 | 0.03 | 1016.1 | ||
| 20260906113024 | -17 | 0.0 | 0.0 | 0.00 | 0.00 | 0.03 | 1015.9 | ||
| 20260906110017 | -17 | 0.0 | 0.0 | 0.00 | 0.00 | 0.03 | 1015.4 | ||
| 20260906104531 | 13 | 22 | 0.0 | 0.0 | 0.00 | 0.00 | 0.03 | 100 | 1015.3 |
| 20260906103026 | 13 | 22 | 0.0 | 0.0 | 0.00 | 0.00 | 0.03 | 100 | 1015.2 |
| 20260906100005 | 13 | 22 | 0.0 | 0.0 | 0.00 | 0.00 | 0.03 | 100 | 1015.1 |
| 20260906094602 | 13 | 22 | 0.0 | 0.0 | 0.00 | 0.00 | 0.03 | 100 | 1014.9 |
| 20260906093054 | 13 | 22 | 0.0 | 0.0 | 0.00 | 0.00 | 0.03 | 100 | 1014.7 |
| 20260906091649 | 13 | 22 | 0.0 | 0.0 | 0.00 | 0.00 | 0.03 | 100 | 1014.5 |
| 20260906090047 | 13 | 22 | 0.0 | 0.0 | 0.00 | 0.00 | 0.03 | 100 | 1014.4 |
| 20260906084543 | 13 | 22 | 0.0 | 0.0 | 0.00 | 0.00 | 0.03 | 100 | 1014.4 |
| 20260906083039 | 13 | 22 | 0.0 | 0.0 | 0.00 | 0.00 | 0.03 | 100 | 1014.2 |
| 20260906081635 | 13 | 22 | 0.0 | 0.0 | 0.00 | 0.00 | 0.03 | 100 | 1014.0 |
| 20260906080031 | 13 | 22 | 0.0 | 0.0 | 0.00 | 0.00 | 0.03 | 100 | 1013.9 |
| 20260906074528 | 13 | 22 | 0.0 | 0.0 | 0.00 | 0.00 | 0.03 | 100 | 1014.0 |
| 20260906073024 | 14 | 22 | 0.0 | 0.0 | 0.00 | 0.00 | 0.03 | 100 | 1014.0 |
| 20260906071618 | 14 | 22 | 0.0 | 0.0 | 0.00 | 0.00 | 0.03 | 100 | 1013.9 |
| 20260906070022 | 14 | 22 | 0.0 | 0.0 | 0.00 | 0.00 | 0.03 | 100 | 1014.1 |
| 20260906064512 | 14 | 22 | 0.0 | 0.0 | 0.00 | 0.00 | 0.03 | 100 | 1014.1 |
| 20260906063006 | 15 | 22 | 0.0 | 0.0 | 0.00 | 0.00 | 0.03 | 100 | 1014.1 |
| 20260906061602 | 15 | 22 | 0.0 | 0.0 | 0.00 | 0.00 | 0.00 | 100 | 1014.0 |
| 20260906060100 | 15 | 22 | 0.0 | 0.0 | 0.00 | 0.00 | 0.00 | 100 | 1014.0 |
| 20260906054609 | 15 | 22 | 0.0 | 0.0 | 0.00 | 0.00 | 0.00 | 100 | 1014.4 |
| 20260906053051 | 15 | 22 | 0.0 | 0.0 | 0.00 | 0.00 | 0.00 | 100 | 1014.5 |
| 20260906051547 | 15 | 22 | 0.0 | 0.0 | 0.00 | 0.00 | 0.00 | 100 | 1014.7 |
| 20260906050044 | 15 | 22 | 0.0 | 0.0 | 0.00 | 0.00 | 0.00 | 100 | 1014.7 |
| 20260906044539 | 15 | 22 | 0.0 | 0.0 | 0.00 | 0.00 | 0.00 | 100 | 1014.7 |
| 20260906043035 | 15 | 22 | 0.0 | 0.0 | 0.00 | 0.00 | 0.00 | 100 | 1014.5 |
| 20260906041531 | 15 | 22 | 0.0 | 0.0 | 0.00 | 0.00 | 0.00 | 100 | 1014.5 |
| 20260906040040 | 15 | 22 | 0.0 | 0.0 | 0.00 | 0.00 | 0.00 | 100 | 1014.5 |
| 20260906034524 | 15 | 22 | 0.0 | 0.0 | 0.00 | 0.00 | 0.03 | 100 | 1014.4 |
| 20260906033020 | 15 | 22 | 0.0 | 0.0 | 0.00 | 0.00 | 0.03 | 100 | 1014.5 |
| 20260906031552 | 15 | 22 | 0.0 | 0.0 | 0.00 | 0.00 | 0.03 | 100 | 1014.3 |
| 20260906030014 | 15 | 22 | 0.0 | 0.0 | 0.00 | 0.00 | 0.03 | 100 | 1014.4 |
| 20260906024532 | 15 | 22 | 0.0 | 0.0 | 0.00 | 0.00 | 0.03 | 100 | 1014.2 |
| 20260906023004 | 15 | 22 | 0.0 | 0.0 | 0.00 | 0.00 | 0.03 | 100 | 1014.1 |
| 20260906021501 | 15 | 22 | 0.0 | 0.0 | 0.00 | 0.00 | 0.03 | 100 | 1014.1 |
| 20260906020055 | 15 | 22 | 0.0 | 0.0 | 0.00 | 0.00 | 0.03 | 100 | 1014.0 |
| 20260906014554 | 16 | 22 | 0.0 | 0.0 | 0.00 | 0.00 | 0.03 | 100 | 1014.0 |
| 20260906013050 | 16 | 22 | 0.0 | 0.0 | 0.00 | 0.00 | 0.03 | 100 | 1014.0 |
| 20260906011543 | 16 | 22 | 0.0 | 0.0 | 0.00 | 0.00 | 0.03 | 100 | 1013.9 |
| 20260906010048 | 16 | 22 | 0.0 | 0.0 | 0.00 | 0.00 | 0.03 | 100 | 1013.9 |
| 20260906004538 | 16 | 22 | 0.0 | 0.0 | 0.00 | 0.00 | 0.03 | 100 | 1013.8 |
| 20260906003032 | 16 | 22 | 1.6 | 0.0 | 0.00 | 0.00 | 0.03 | 100 | 1013.7 |
| 20260906001534 | 16 | 54 | 0.0 | 0.0 | 0.00 | 0.00 | 0.00 | 100 | 1013.7 |
| 20260906000026 | 16 | 63 | 0.0 | 0.0 | 0.00 | 0.00 | 0.00 | 100 | 1013.5 |
| 20260905234521 | 16 | 63 | 0.0 | 0.0 | 0.00 | 0.00 | 0.00 | 100 | 1013.4 |
| 20260905233017 | 16 | 63 | 0.0 | 0.0 | 0.00 | 0.00 | 0.00 | 100 | 1013.5 |
| 20260905231513 | 16 | 63 | 0.0 | 0.0 | 0.00 | 0.00 | 0.00 | 100 | 1013.5 |
| 20260905230017 | 17 | 63 | 0.0 | 0.0 | 0.00 | 0.00 | 0.00 | 5 | 1013.2 |
| 20260905224516 | 17 | 63 | 1.6 | 0.0 | 0.00 | 0.00 | 0.00 | 11 | 1013.3 |
| 20260905223101 | 17 | 60 | 1.6 | 0.0 | 0.00 | 0.00 | 0.00 | 24 | 1013.1 |
| 20260905221556 | 18 | 86 | 0.0 | 0.0 | 0.00 | 0.00 | 0.00 | 36 | 1012.7 |
| 20260905220054 | 18 | 98 | 1.6 | 0.0 | 0.00 | 0.00 | 0.00 | 48 | 1012.4 |
| 20260905214552 | 20 | 32 | 1.6 | 0.0 | 0.00 | 0.00 | 0.00 | 52 | 1012.3 |
| 20260905213048 | 21 | 313 | 0.0 | 0.0 | 0.00 | 0.00 | 0.00 | 51 | 1012.2 |
| 20260905211559 | 20 | 313 | 1.6 | 0.0 | 0.00 | 0.00 | 0.00 | 50 | 1012.1 |
| 20260905210051 | 20 | 313 | 1.6 | 0.0 | 0.00 | 0.00 | 0.00 | 50 | 1012.2 |
| 20260905204537 | 20 | 340 | 1.6 | 0.0 | 0.00 | 0.00 | 0.00 | 50 | 1012.1 |
| 20260905203029 | 20 | 338 | 1.6 | 0.0 | 0.00 | 0.00 | 0.00 | 50 | 1012.1 |
| 20260905201532 | 20 | 344 | 0.0 | 0.0 | 0.00 | 0.00 | 0.00 | 51 | 1012.0 |
| 20260905200022 | 20 | 355 | 1.6 | 0.0 | 0.00 | 0.00 | 0.00 | 53 | 1011.9 |
| 20260905194518 | 20 | 355 | 1.6 | 0.0 | 0.00 | 0.00 | 0.00 | 54 | 1011.9 |
| 20260905193014 | 20 | 12 | 1.6 | 0.0 | 0.00 | 0.00 | 0.00 | 54 | 1011.9 |